This is the latest recevied weather packets stored in our database for station/object K4DNM. If no packets are shown the sender has not sent any weather packets the latest 10 day(s).
| Time | Temp. | Humidity | Pressure | Rain* | Wind** | Luminosity | Snow |
|---|---|---|---|---|---|---|---|
| 1777639486 | 12.22° C | 63% | 1014.7 hPa | 0 mm | - | 71 W/m² | - |
| 1777639186 | 12.22° C | 64% | 1014.7 hPa | 0 mm | - | 69 W/m² | - |
| 1777638886 | 12.22° C | 63% | 1014.6 hPa | 0 mm | - | 83 W/m² | - |
| 1777638586 | 12.22° C | 64% | 1014.6 hPa | 0 mm | - | 78 W/m² | - |
| 1777638288 | 12.22° C | 64% | 1014.5 hPa | 0 mm | - | 100 W/m² | - |
| 1777637975 | 12.22° C | 64% | 1014.5 hPa | 0 mm | - | 111 W/m² | - |
| 1777637675 | 11.67° C | 65% | 1014.5 hPa | 0 mm | - | 120 W/m² | - |
| 1777637375 | 11.67° C | 66% | 1014.6 hPa | 0 mm | - | 111 W/m² | - |
| 1777637076 | 11.67° C | 66% | 1014.7 hPa | 0 mm | - | 92 W/m² | - |
| 1777636775 | 11.67° C | 66% | 1014.8 hPa | 0 mm | - | 79 W/m² | - |
| 1777636473 | 11.67° C | 66% | 1014.8 hPa | 0 mm | - | 54 W/m² | - |
| 1777636173 | 11.67° C | 66% | 1014.9 hPa | 0 mm | - | 77 W/m² | - |
| 1777635933 | 11.11° C | 66% | 1014.8 hPa | 0 mm | - | 52 W/m² | - |
| 1777635558 | 11.11° C | 68% | 1014.7 hPa | 0 mm | - | 75 W/m² | - |
| 1777635258 | 11.11° C | 67% | 1014.6 hPa | 0 mm | - | 48 W/m² | - |
| 1777634958 | 11.11° C | 67% | 1014.6 hPa | 0 mm | - | 45 W/m² | - |
| 1777634658 | 11.11° C | 67% | 1014.3 hPa | 0 mm | - | 34 W/m² | - |
| 1777634359 | 11.11° C | 66% | 1014.5 hPa | 0 mm | - | 21 W/m² | - |
| 1777634058 | 11.11° C | 66% | 1014.4 hPa | 0 mm | - | 13 W/m² | - |
| 1777633759 | 11.11° C | 67% | 1014.4 hPa | 0 mm | - | 13 W/m² | - |
| 1777633519 | 11.11° C | 66% | 1014.2 hPa | 0 mm | - | 16 W/m² | - |
| 1777633158 | 11.11° C | 66% | 1014.3 hPa | 0 mm | - | 10 W/m² | - |
| 1777632858 | 11.11° C | 67% | 1014.5 hPa | 0 mm | - | 6 W/m² | - |
| 1777632559 | 11.11° C | 67% | 1014.4 hPa | 0 mm | - | 5 W/m² | - |
| 1777632245 | 10.56° C | 67% | 1014.3 hPa | 0 mm | - | 5 W/m² | - |
* Rain latest hour (hover to see other rain measurements)
** Current wind speed in m/s (hover to see current wind gust speed)